Torna al catalogo

BREEZE-M DEB

TANK

AttivoHEO
NORAD 40986·DEBRIS·🇷🇺 Russia

Lanciato Oct 16, 2015 da Baikonur Cosmodrome

Loading…

Prossimi Passaggi (prossime 24 ore)

TLE

AggiornatoSource: Space-Track

Epoca: Sep 14, 2026, 15:48 UTC

1 40986U 15060C   26257.65839370  .00000540  00000-0  27411-3 0  9999
2 40986  49.0465 134.7910 6078532 297.3182  14.3197  3.85676044152416

Traccia BREEZE-M DEB in tempo reale con AllMySat

Download on the App Store